Location: Bremen
(53.0830°N, 8.8000°E)
Time: 20:49:49
(UTC+01:00)

ISS - Visible Passes

Search period start: 29 October 2020 00:00
Search period end: 08 November 2020 00:00
Orbit: 417 x 420 km, 51.6° (Epoch: 29 October)

Date Brightness Start Highest point End Pass type
(mag) Time Alt. Az. Time Alt. Az. Time Alt. Az.
29 Oct -1.3 04:23:27 19° ESE 04:23:27 19° ESE 04:25:02 10° E visible
29 Oct -3.4 05:56:24 18° WSW 05:58:40 60° S 06:02:00 10° E visible
30 Oct -3.3 05:10:41 48° S 05:10:57 50° SSE 05:14:14 10° E visible
31 Oct -1.4 04:24:55 23° ESE 04:24:55 23° ESE 04:26:26 10° E visible
31 Oct -3.6 05:57:52 22° WSW 05:59:51 70° S 06:03:12 10° E visible
01 Nov -3.7 05:12:04 67° S 05:12:05 67° S 05:15:26 10° E visible
01 Nov -3.3 06:45:26 10° W 06:48:46 55° SSW 06:52:03 10° ESE visible
02 Nov -1.3 04:26:14 23° E 04:26:14 23° E 04:27:40 10° E visible
02 Nov -3.6 05:59:11 24° W 06:01:01 64° S 06:04:21 10° ESE visible
03 Nov -3.7 05:13:21 68° SSE 05:13:21 68° SSE 05:16:36 10° E visible
03 Nov -2.7 06:46:40 10° W 06:49:48 36° SSW 06:52:56 10° SE visible
04 Nov -1.2 04:27:32 21° E 04:27:32 21° E 04:28:49 10° E visible
04 Nov -3.2 06:00:29 25° W 06:02:06 46° SSW 06:05:20 10° SE visible
05 Nov -3.3 05:14:41 53° SSE 05:14:41 53° SSE 05:17:40 10° ESE visible
05 Nov -2.0 06:48:07 10° W 06:50:44 21° SSW 06:53:19 10° SSE visible
06 Nov -1.1 04:28:54 18° ESE 04:28:54 18° ESE 04:29:56 10° ESE visible
06 Nov -2.5 06:01:52 22° WSW 06:03:04 28° SSW 06:06:00 10° SSE visible
07 Nov -2.5 05:16:08 32° S 05:16:08 32° S 05:18:30 10° SE visible
07 Nov -1.3 06:50:38 10° SW 06:51:28 11° SW 06:52:17 10° SSW visible
